FW7205 Weather Reports


Display with metric or nautical units.
time (UTC)temp
F
wind
direction
speed
MPH
gust
MPH
rain 1hr
in
rain 24hr
in
rain mn
in
humidity
%
barometer
mb
20260903213112 83 91 1.0 3.0 0.00 0.20 0.00 84 1011.7
20260903211605 84 76 0.0 3.0 0.00 0.20 0.00 84 1011.9
20260903210113 83 360 1.0 3.0 0.00 0.20 0.00 84 1012.0
20260903204603 83 360 1.0 4.0 0.00 0.20 0.00 83 1011.9
20260903203104 83 72 1.0 4.0 0.00 0.20 0.00 84 1011.8
20260903201601 83 91 1.0 4.0 0.00 0.20 0.00 84 1012.1
20260903200104 82 88 2.0 5.0 0.00 0.20 0.00 83 1012.4
20260903194602 82 76 2.0 5.0 0.00 0.20 0.00 82 1012.7
20260903193100 82 78 2.0 8.0 0.00 0.20 0.00 82 1012.8
20260903191604 82 64 2.0 5.0 0.00 0.20 0.00 83 1012.9
20260903184601 81 66 2.0 5.0 0.00 0.20 0.00 85 1013.3
20260903183105 80 360 1.0 4.0 0.00 0.20 0.00 85 1013.2
20260903181604 80 65 2.0 4.0 0.00 0.20 0.00 85 1013.2
20260903174601 80 78 0.0 4.0 0.00 0.20 0.00 85 1013.7
20260903173100 81 0 0.0 2.0 0.00 0.20 0.00 87 1014.0
20260903171626 80 0 0.0 2.0 0.00 0.20 0.00 86 1014.3
20260903170100 80 0 0.0 1.0 0.00 0.20 0.00 87 1014.4
20260903164605 80 0 0.0 4.0 0.00 0.20 0.00 88 1013.9
20260903163059 80 0 0.0 2.0 0.00 0.20 0.00 90 1013.8
20260903161600 80 0 0.0 2.0 0.00 0.20 0.00 91 1014.0
20260903160059 80 0 0.0 2.0 0.00 0.20 0.00 92 1014.0
20260903154601 79 71 1.0 3.0 0.00 0.20 0.00 93 1013.9
20260903153058 79 71 1.0 4.0 0.00 0.20 0.00 94 1013.9
20260903151604 80 85 1.0 4.0 0.00 0.20 0.00 95 1014.0
20260903144601 80 76 1.0 3.0 0.00 0.20 0.00 95 1013.8
20260903143112 79 0 0.0 1.0 0.00 0.20 0.00 95 1013.8
20260903141604 79 0 0.0 4.0 0.00 0.20 0.00 95 1013.7
20260903140106 79 67 1.0 3.0 0.00 0.20 0.00 95 1013.4
20260903134604 79 0 0.0 0.0 0.00 0.20 0.00 95 1013.3
20260903133111 79 0 0.0 0.0 0.00 0.20 0.00 95 1013.4
20260903131611 79 0 0.0 2.0 0.00 0.20 0.00 95 1013.3
20260903130121 79 0 0.0 1.0 0.00 0.20 0.00 95 1013.1
20260903124603 79 0 0.0 1.0 0.00 0.20 0.00 95 1013.1
20260903123102 79 0 0.0 1.0 0.00 0.20 0.00 95 1012.7
20260903121604 79 0 0.0 1.0 0.00 0.20 0.00 95 1012.3
20260903120059 78 0 0.0 1.0 0.00 0.20 0.00 95 1012.4
20260903114601 78 0 0.0 1.0 0.00 0.20 0.00 95 1012.2
20260903113104 78 0 0.0 1.0 0.00 0.20 0.00 95 1012.2
20260903111608 78 0 0.0 1.0 0.00 0.20 0.00 95 1012.3
20260903110103 79 0 0.0 1.0 0.00 0.20 0.00 95 1012.2
20260903104604 79 0 0.0 0.0 0.00 0.20 0.00 95 1011.9
20260903103104 79 0 0.0 1.0 0.00 0.20 0.00 95 1012.0
20260903101604 79 0 0.0 1.0 0.00 0.20 0.00 95 1012.2
20260903094610 79 0 0.0 0.0 0.00 0.20 0.00 95 1012.1
20260903093119 79 0 0.0 2.0 0.00 0.20 0.00 94 1012.2
20260903091613 79 0 0.0 1.0 0.00 0.20 0.00 94 1012.2
20260903084601 79 0 0.0 1.0 0.00 0.20 0.00 94 1012.1
20260903083109 78 0 0.0 0.0 0.00 0.20 0.00 94 1012.2
20260903081603 78 0 0.0 0.0 0.00 0.20 0.00 94 1012.3
20260903080108 78 0 0.0 0.0 0.00 0.20 0.00 94 1012.2
20260903074601 78 0 0.0 1.0 0.00 0.20 0.00 94 1011.7
20260903073101 78 0 0.0 2.0 0.00 0.20 0.00 94 1011.9
20260903071605 78 0 0.0 1.0 0.00 0.20 0.00 94 1011.9
20260903070105 78 0 0.0 1.0 0.00 0.20 0.00 94 1011.9
20260903064601 78 0 0.0 1.0 0.00 0.20 0.00 94 1012.0
20260903063104 77 0 0.0 0.0 0.00 0.20 0.00 94 1012.0
20260903061608 77 0 0.0 1.0 0.00 0.20 0.00 93 1012.2
20260903060109 77 0 0.0 2.0 0.00 0.20 0.00 93 1012.1
20260903054607 77 0 0.0 2.0 0.00 0.20 0.00 93 1012.0
20260903053104 77 0 0.0 2.0 0.00 0.20 0.00 93 1012.1
20260903051605 76 0 0.0 2.0 0.00 0.20 0.00 93 1012.4
20260903050104 76 0 0.0 2.0 0.00 0.20 0.00 93 1012.5
20260903044559 76 128 0.0 2.0 0.00 0.20 0.20 92 1012.7
20260903043100 76 0 0.0 2.0 0.01 0.20 0.20 92 1012.5
20260903041616 76 0 0.0 3.0 0.01 0.20 0.20 91 1012.7
20260903034604 76 0 0.0 2.0 0.06 0.20 0.20 91 1012.8
20260903033104 76 115 0.0 4.0 0.13 0.19 0.19 90 1012.8
20260903031601 78 145 0.0 3.0 0.19 0.19 0.19 90 1012.8
20260903030100 78 103 1.0 4.0 0.18 0.18 0.18 90 1012.6
20260903024601 79 0 0.0 4.0 0.14 0.14 0.14 89 1012.6
20260903023125 79 0 0.0 4.0 0.06 0.06 0.06 88 1012.9
20260903021607 80 0 0.0 4.0 0.00 0.00 0.00 87 1012.4
20260903020104 80 192 2.0 7.0 0.00 0.00 0.00 86 1010.8
20260903014611 82 67 2.0 5.0 0.00 0.00 0.00 84 1010.6
20260903013107 82 82 1.0 3.0 0.00 0.00 0.00 82 1010.9
20260903011613 83 113 1.0 6.0 0.00 0.00 0.00 80 1010.3
20260903010106 83 69 2.0 5.0 0.00 0.00 0.00 78 1010.3
20260903004619 83 74 2.0 5.0 0.00 0.00 0.00 76 1010.3
20260903003108 84 70 2.0 8.0 0.00 0.00 0.00 75 1010.3
20260903001625 85 360 3.0 7.0 0.00 0.00 0.00 73 1010.1
20260903000100 87 67 3.0 10.0 0.00 0.00 0.00 71 1010.3
20260902234607 88 73 2.0 7.0 0.00 0.00 0.00 68 1010.4
20260902233102 90 69 1.0 7.0 0.00 0.00 0.00 66 1009.8
20260902231605 92 71 2.0 7.0 0.00 0.00 0.00 62 1010.1
20260902230104 96 73 2.0 7.0 0.00 0.00 0.00 56 1009.9
20260902224603 99 78 1.0 6.0 0.00 0.00 0.00 50 1009.8
20260902223106 100 0 0.0 2.0 0.00 0.00 0.00 44 1009.4
20260902221605 100 210 0.0 2.0 0.00 0.00 0.00 44 1009.3
20260902220059 100 211 0.0 2.0 0.00 0.00 0.00 42 1009.4
20260902214607 100 0 0.0 2.0 0.00 0.00 0.00 41 1009.3